Race Results for
MSC #3, The Chile Challenge
Angel Fire, NM
(Event Information)
Cross Country on 05/25/2008

Note: Ranking points are NOT upgrade points. An explanation of ranking points can be found here.


Men - SP - Junior - 1-18

 Place Points NameCity, StateTime USAC #BibTeam
1491.49Lewis Gaffney   Angel Fire, NM1:37:27 247368  835 Team F.I.Taos
2507.91Mario Chiarani   Bailey, CO1:41:23 239901  725 Platte Canyon Cycling
3524.33Tristan White   Dillon, CO1:47:10 217504  791 
4Keegan SWIRBUL   1:47:24  712 
5557.16Brett Gordon   Snowmass Village, CO1:49:31 224476  545 Ellsworth Honeystinger
6573.58Phillip Ward   Pine, CO1:59:41 252646  1171 Platte Canyon Cycles
7Chase HOJNOSKI   2:29:44  1228 
DNPKyle Rhodes   Lone Tree, CODNS 219742  579 
DNPSepp KUSS   DNS  541 

Men - SP - Senior - 19-29

 Place Points NameCity, StateTime USAC #BibTeam
1Eric COLLINS   1:28:01  1226 
2John SEARLES   1:32:21  1018 
3516.74Jon Harrach-Salazar   Erie, CO1:37:50 273252  979 Feedback Sports
4Christoph ADELS   1:38:39  1193 SRM Powermeters
5542.82Michael Chavez   Englewood, CO1:39:43 277774  584 
6Troy CARMODY   1:44:51  1231 
7568.90Justin Berndt   Roanoke, TX1:50:51 209652  1108 NRC/Pedalmasher
8Tyson SPARKS   1:54:30  1196 Sixsixone/zonic
DQTim Curry   La Crosse, WIDSQ 248006  818 CB Builders / Brick Oven
DNPAndrew Gillott   Boulder, CODNS 233827  562 CU Cycling
DNPRyan Schultz   Grand Junction, CODNS 240082  523 COMotion Sports

Men - SP - Senior - 19-99

 Place Points NameCity, StateTime USAC #BibTeam
1Wayne SMITH   1:52:13  1235 Andy Smith General Contractor
2Eric SCOTT   2:05:36  1199 Soapy Digit
DNPKeith Darner   Golden, CODNS 8663  577 Rpm/yeti/kenda/fox

Men - SP - Master - 30-34

 Place Points NameCity, StateTime USAC #BibTeam
1Dominic GARCIA   1:35:38  637 
2Kevin ORMEROD   1:40:48  907 RHOC Racing
3Ryan SIGGINS   1:41:50  1135 Chiropractic Durango
4Eric LAWRENCE   1:43:30  1192 
5Josh MARCEAU   1:46:18  1212 Green Mtn. Sports
6494.57Michael Hebert   Colorado Springs, CO1:48:07 173611  1215 Pro Cycling
7486.88Kevin Adair   Larchmont, NY1:49:44 275428  678 Performance Playground
8479.20Bradley Custer   Queen Creek, AZ1:52:59 181883  1117 Durango Rough Riders
9471.52Scott Haupert   Santa Fe, NM1:54:17 181897  1101 BTI
10Ola VERPLOEGH   1:54:30  1223 
11456.15Robby Schweiss   Littleton, CO1:56:09 206783  1017 
12448.46David Slovick   Minnetonka, MN1:59:12 234315  920 
13Chris DELAURO   2:01:09  960 
14433.09Christopher Taylor   Denver, CO2:01:10 263943  1225 COMotion Sports
15425.41Seth Srickland   Breckenridge, CO2:02:36 243646  948 Great Adventure / Kona
16Geoff HARDTNER   2:03:44  1200 Colonels Bike
DNPDaniel Fallon   Denver, CODNS 273736  834 Rocky Mountain Racing
DNPJEFFREY CONNORS   Golden, CODNS 273148  522 Feedback Sports
DNFDaniel Morrison   Westminster, CODNF 99914  772 Izze/Rocky Mounts

Men - SP - Master - 35-39

 Place Points NameCity, StateTime USAC #BibTeam
1Reg RHODES   1:32:18  1010 
2Nick STARKEY   1:33:50  1152 Accent Cycling
3Andrew BLACK   1:36:08  679 Andrew Black
4550.14Greg Rach   Arroyoseco, NM1:41:25 279004  901 Team F.I.Taos
5555.84Scott Spangler   Albuquerque, NM1:43:29 259921  782 
6Chris KASEY   1:45:07  760 Team Cohort
7567.22Sam Brede   Breckenridge, CO1:45:24 122803  1188 Carvers Sports
8Paul CHEN   1:48:31  1234 
9578.61James Waller   Denver, CO1:52:26 249251  1024 Backbone Racing
10584.31Jacob Gonzales   Taos, NM1:52:41 245268  1037 Team F.I.Taos
11William TURNER   2:08:07  558 Bikeparts.com
DNPEric Peltier   Boulder, CODNS 87379  519 Rocky Mounts/Izze Racing
DNPJeffrey Voorhees   Denver, CODNS 150912  1023 Feedback Sports
DNPKyle Henley   Golden, CODNS 222531  505 Feedback Sports
DNPDoug Dupuie   Denver, CODNS 76455  571 COMotion Sports
DNFJames LAWLER   DNF  647 

Men - SP - Master - 40-49

 Place Points NameCity, StateTime USAC #BibTeam
1468.16Douglas Meegan   Littleton, CO1:31:41 105731  509 Team Colorado Singletrack
2471.73Bruce Chesy   Littleton, CO1:36:47 274828  501 Boulder Performance Network
3475.31Larry Manchester   Highlands Ranch, CO1:37:02 96241  502 Oes/bike Source
4478.88Lance Bolton   Aspen, CO1:37:06 279656  935 
5482.45Robert LaMielle   Arvada, CO1:39:09 226691  518 Feedback Sports
6486.02Cary Dunn   Pine, CO1:40:39 10203  833 Back Country Builders Inc
7Steve VANDERBURGH   1:40:51  593 Feedback Sports
8Michael ZARLINGO   1:42:08  1028 
9Henry NOERDLINGER   1:42:57  631 RMR
10Paul RAEMER   1:46:21  613 
11503.89Antony Bahr   Englewood, CO1:47:16 2251  743 Team Colorado Singletrack
12507.46Douglas Schneebeck   Albuquerque, NM1:48:30 104705  666 NM Velo Sport
13David JORDAN   2:03:49  644 
14514.60Jeffrey Kennedy   Breckenridge, CO2:07:03 207015  761 Filter Kleen
15518.18Rob Harvey   Highlands Ranch, CO2:09:33 192257  586 ASG Team Dream
16521.75Larry Collins   Denver, CO2:19:22 245087  942 Larry Collins
17Carlos MCGARITY   2:23:00  1040 Team F.I.Taos
18Christian DICKER   2:23:25  961 
19Pete RINCON   2:38:08  916 Team Ups
DQtim james   Lafayette, CODSQ 271425  595 Emortgage Strategy
DNPJohn SEYFRIED   DNS  1046 

Men - SP - Master - 50-99

 Place Points NameCity, StateTime USAC #BibTeam
1540.00Thomas Kimmell   Colorado Springs, CO1:40:50 268856  1183 ProCycling
2550.00Eric Houck   Loveland, CO1:53:00 276298  620 
3560.00David Curry   Crested Butte, CO2:17:29 248031  817 
4570.00Fred Froemel   El Paso, TX2:18:21 220462  1129 Crazy Cat
5John PADILLA   2:24:51  775 
6590.00Tom Buder   Tulsa, OK2:43:51 5366  610 
DNFPatrick AMY   DNF  1160 

Men - SM

 Place Points NameCity, StateTime USAC #BibTeam
1495.90Jan Koles   Winter Park, CO2:12:28 222615  22 RMCEF-Mob Cyclery
2499.03Robert Sousa   Thornton, CO2:12:46 250172  11 COMotion Sports
3502.15Kalan Beisel   Colorado Springs, CO2:12:59 244363  17 ProCycling/CTS
4505.28Jens Nielsen   Durango, CO2:13:25 144898  41 Big Wheel Racing
5508.41Cody Waite   Cave Creek Az2:14:37 88443  56 Epc Multisport
6511.54Nate Bird   Steamboat Springs, CO2:16:21 264280  18 Honey Stinger
7514.66Nick Truitt   Breckenridge, CO2:18:14 198767  33 Please Sponsor Me!
8517.79Art Nelsen   Boulder, CO2:19:19 211465  24 Tokyo Joes
9520.92Joseph Cooper   Superior, CO2:20:37 50587  64 Twin Peaks Racing Team
10524.04Dax Kastrin   Albuquerque, NM2:21:14 195035  84 Sport Systems MTC
11527.17Caley Fretz   Boulder, CO2:21:35 178443  242 Velox Cycles
12530.30Aaron Small   Morrison, CO2:22:07 32963  46 Green Mtn Sports Velo
13533.43Damien Fraser   Eagle, CO2:22:19 213484  190 Mafia Racing
14536.55Bryan Mickiewicz   Littleton, CO2:22:29 211312  133 Rocky Mountain Racing
15539.68Griff Duncan   Boulder, CO2:23:17 182982  158 Phoenix Multi-sport
16542.81Jordan Williford   Boulder, CO2:23:29 246497  12 Bach Builders
17545.93Blake Harlan   Austin, TX2:23:40 175637  229 Monaviecannondale.com
18549.06Benjamin Portilla   Oakland, CA2:24:58 208016  261 Honey Stinger/Optic Nerve
19552.19Derek Henderson   Golden, CO2:25:04 210109  243 Rocky Mountain Racing
20555.32Ward Baker   Boulder, CO2:27:47 109619  37 Rocky Mounts/Izze Racing
21558.44Doug Johnson   Colorado Springs, CO2:28:11 17932  170 Bandwagon Racing
22561.57Russell Folger   Golden, CO2:36:27 99185  227 High Country Racing Team
23564.70Joe Schneider   Durango, CO2:39:50 217452  210 
24567.82Jordan Kahlenberg   Morrisville Pa2:44:19 152298  171 Rocky Mountain Racing
DNPJustin Maka   Albuquerque, NMDNS 164982  193 Azonic/Maxxis/Ritchey
DNPJeremy Torres   Denver, CODNS 221702  16 Rocky Mountain Racing
DNPJohn Barclay   Boulder, CODNS 2553  15 Boulder Cycle Sport
DNFScott McCalmon   Boulder, CODNF 164725  34 Dean Bikes
DNFEric Hanzel   Frisco, CODNF 176736  191 Mafia Racing

Men - Single Speed - 19-99

 Place Points NameCity, StateTime USAC #BibTeam
1Cale Redpath   Durango, CO1:35:23 29358  254 Directory Plus
2Chad Melis   Lyons, CO1:41:36 161935  245 Dales Pale Ale Spot Brand
3Travis Colbert   Leadville, CO1:44:12 168439  686 Venture Sports
4Jurgen Bergeron   Colorado Spgs, CO1:46:44 3429  240 
5Henry Horrocks   Fort Collins, CO1:47:25 173210  1142 Schwalbe
6Charles Hayes   Boulder, CO1:50:05 15519  26 Trek VW / Rocky Mtn Regional T
7Chris TAMUCCI   1:51:11  1119 Honey Stinger
8Robin Guillaume   Fort Collins, CO1:52:40 271402  539 
9Kevin Perry   Avon, CO1:53:08 81662  1006 Spot
10Carlos Vulgamott   Lakewood, CO1:54:32 129128  567 Sycip/Schwalbe Tires
11Courtney GREGORY   1:54:34  841 Mafia Racing
12Gavin Hayes   Englewood, CO1:58:37 169867  1143 Spot Brand/Dales Pale Ale
13Charlie DUNN   2:07:01  703 ProCycling
14John STARR   2:09:34  1233 
DNPDan Durland   Colorado Springs, CODNS 199907  962 Pro Cycling/black Sheep
DNFAlex Coleman   Edwards, CODNF 7348  816 
DNFColin McKernan   Arvada, CODNF 153352  21 Bikeparts.com

Men - EX - Junior - 1-18

 Place Points NameCity, StateTime USAC #BibTeam
1416.28Michael Vigers   Boulder, CO1:41:12 246461  926 Dales Pale Ale Spot Brand
2427.86Brae Patten   Gunnison, CO1:42:02 230367  1003 Tokyo Joes
3439.44Adam Parke   Steamboat Springs, CO1:42:04 213492  544 Crank Brothers
4451.03Matt Wiebe   Boulder, CO1:45:28 242922  521 Colorado Singletrack Racing
5462.61Kevin Kane   Dillon, CO1:45:28 223277  528 Sobe Cannondale
6474.19Lucas Perez   Durango, CO1:46:36 264816  911 Rotor Rings and VeloNews
7485.77Will Curry   Crested Butte, CO1:47:47 247987  819 CB Builders / Brick Oven
8497.35Daniel Boyes   Inverness, CA1:50:40 222657  936 
9508.93Andrew Dunlap   Dillon, CO1:54:16 222198  531 Mountain Sports Outlet
10520.51Kyle Kraakevik   Scottsdale, AZ1:55:32 232125  694 Fetish Cycles
11532.09Chase Orrick   Durango, CO1:57:33 243827  1000 Durango Devo
12543.68Kyle Horn   Durango, CO2:01:09 226818  674 Durango Devo
13555.26Sam Atkins   Bozeman, MT2:01:15 247842  741 Van Dessel Factory Team
14566.84Ben Malmborg   Boulder, CO2:02:19 263999  889 Tokyo Joes
15578.42Russell Finsterwald   Colorado Springs, CO2:05:34 228336  966 Front Rangers - Cos/magura
16590.00Dawson Stucki   Durango, CO2:08:26 225424  1047 Crested Butte Builders
DNFKevin Fish   Austin, TXDNF 189245  1084 Coachahmadi.com
DNFBryce Gordon   Durango, CODNF 405755  839 Honey Stinger/Ellsworth

Men - EX - Senior - 19-29

 Place Points NameCity, StateTime USAC #BibTeam
1395.49Nicolas Enjalbert   Fort Collins, CO1:42:19 274054  1036 Team Velox
2403.27Michael Hall   Colorado Springs, CO1:42:41 133754  537 SRM Power Meters
3411.05Gregory Abrahamson   Longmont, CO1:45:34 131546  1155 Rocky Mountain Bikes/STOK Cycl
4418.83Logan Wealing   Colorado Springs, CO1:46:51 170294  1025 Spike Racing
5426.61david olson   Sturgis, SD1:47:16 275854  999 
6Peter KALMES   1:47:47  1039 
7442.17Michael Riley   Colorado Springs, CO1:50:13 223985  1042 
8449.95Matthew Connors   Scottsdale, AZ1:50:26 196490  616 Evomo
9457.73Andrew Shepherd   Boulder, CO1:50:46 200758  1112 Trek VW
10465.51Trevor Irons   Arvada, CO1:52:31 122074  983 Echelon Health
11Colin JENKINS   1:52:37  869 RMR
12481.07Sem Gallegos   El Paso, TX1:53:41 233198  1208 Crazy Cat Cyclery
13488.86Douglas Schuler   Boulder, CO1:54:34 262367  532 Lenz Sport/boulder Cycle Sport
14Jesse WOLFE   1:56:24  737 
15504.42John Crawford   Boulder, CO1:57:58 252964  1113 CU Cycling
16512.20John Beck   Tucson, AZ1:58:26 264025  1030 
17519.98Cody Stephenson   Fort Collins 1:59:36 146653  1216 
18527.76James Sullivan   Boulder, CO2:01:53 221582  971 CU Cycling
19535.54Will MacDonald   Littleton, CO2:02:41 218457  991 
20543.32Jacob Arvizu   Chubbuck, ID2:04:13 210893  884 
21551.10Chris Smithwick   Erie, CO2:04:29 166167  781 Leslie Eide
22558.88Adam Pulford   Colorado Springs, CO2:08:28 250055  636 PowerBar
23566.66G Adam Stepanovic   Santa Cruz, CA2:11:07 41895  786 
24574.44Abiel Lopez   El Paso, TX 262430   
25582.22Taylor Abbey   Addison, TX2:15:43 235258  1109 Team NRC/Pedalmasher
26590.00Kyle Baxter   Denver, CO2:26:14 192363  716 
DNPChris Butler   Carbondale, CODNS 264691  534 COMotion Sports
DNFPaul Gorbold   Avon, CODNF 278985  1237 Pedal Power
DNFNathan Brown   Boulder, CODNF 207512  1081 

Men - EX - Master - 30-34

 Place Points NameCity, StateTime USAC #BibTeam
1473.04Jason Young   Boulder, CO1:42:28 43908  526 Feedback Sports
2477.35Jonathan Watt   Colorado Springs, CO1:44:27 118005  237 Bikeparts.com - Fox Shox
3481.67Scott Ellis   Lakewood, CO1:47:23 225754  1190 Rocky Mountain Racing
4485.98Jake Lueckel   Lakewood, CO1:48:08 76599  525 Bicycle Village / Squirt Lube
5490.29Daniel Lionberg   Fort Collins, CO1:49:37 195162  1164 Velox Cycles
6494.61Jason Curnow   Albuquerque, NM1:53:47 55958  1230 Tamarack
7498.92Tom Torrance   Boulder, CO1:55:16 173912  1048 Pearl Izumi
8503.23Elliot McKinney   Amarillo, TX1:55:27 169299  1244 Solar Eclipse
9507.55Joshua Cullen   New Castle, CO1:55:30 149664  576 Rocky Mountain Racing
10511.86Taylor Anderson   Helena, MT1:56:50 134745  1138 Dales Pale Ale Spot Brand
11Rich ARVIZO   1:57:15  1205 Yeti
12520.49Tony Torrance   Boulder, CO1:58:00 172298  1049 Pearl Izumi
13524.80Steve Wegner   Johnstown, CO2:01:31 192958  594 Diamond Peak Racing
14529.12Jason Giles   Westminster, CO2:10:12 240985  514 Colorado Singletrack Racing
DNPSeth Ramsbottom   Evergreen, CODNS 29099  1191 COMotion Sports/Yeti Cycles
DNFDan Dunbar   Boulder, CODNF 235244  753 Feedback Sports

Men - EX - Master - 35-39

 Place Points NameCity, StateTime USAC #BibTeam
1394.73Andrew Riemenschneider   Salida, CO1:49:35 104372  1210 South Central Racing
2404.41Keith Collins   Denver, CO1:49:41 226498  533 RallySport/Cre8buzz.com
3414.09Robert Batey   Boulder, CO1:50:08 217134  507 Pro Peloton Racing
4423.77Gary Kuntz   Centennial, CO1:52:39 150838  524 Team Colorado Singletrack
5433.45Brandon Eifrid   Lafayette, CO1:52:51 106252  648 Horizon Organic Cycling
6443.12Greg Scanlan   Fort Collins, CO1:53:07 246878  535 Diamond Peak Racing
7452.80Hank Williams   Denver, CO1:55:01 210797  511 Rmr
8462.48Ashley Goodwin   Colorado Springs , CO1:55:05 146662  838 
9472.16Vincent Allen   Lakewood, CO1:56:56 178355  1211 Rocky Mountain Racing
10481.84Dwayne Weddle   Grand Junction, CO1:57:15 134462  249 DT Swiss
11491.51Rob Lockey   Indian Hills, CO1:58:30 136530  587 Optimize Endurance Services/bi
12501.19Ron Chavez   Commerce City, CO2:04:15 88964  941 Derby Bicycle Center
13510.87Nicholas Crossed   Boulder, CO2:05:35 149222  1206 Peak Cycles/BikeParts.com
14520.55Eric Derksen   Colorado Springs, CO2:07:06 83394  831 Spike
15530.23Sean Cassily   Arroyo Seco, NM2:07:13 174261  939 Team F.I.Taos
16539.91Sean Ahmadi   Austin, TX2:07:35 42964  738 Coachahmadi.com
17549.58Parker Macy   Longmont, CO2:11:11 138437  1207 Peak Cycles/BikeParts.com
18559.26Rhett Covington   Superior, CO2:14:50 177369  538 
DNPJeff Carmody   Fort Worth, TXDNS 229418  655 
DNFChris Grobe   Denver, CODNF 248807  842 Rocky Mountain Racing

Men - EX - Master - 40-49

 Place Points NameCity, StateTime USAC #BibTeam
1358.79Michael Hogan   Louisville Co1:40:43 191601  622 Chipotle-Titus
2370.96Thomas Dooley   Boulder, CO1:44:35 69831  832 Chipotle-Titus
3383.13Mark Thompson   Breckenridge, CO1:45:05 189745  1218 Spike
4395.30Glenn Walton   Nathrop, CO1:48:16 136296  1209 South Central Racing
5407.47Douglas Hudson   Golden, CO1:52:17 77069  516 Feedback Sports
6419.64Christopher Casey   Placitas, NM1:52:29 135137  685 Sports Systems/MTC
7431.81Timothy Barnes   Boulder, CO1:54:54 96071  1029 Bikeparts.com
8443.98Greg Gorrell   Conifer, CO1:55:58 221265  513 Feedback Sports
9456.14Alan Rishel   Las Cruces, NM1:56:49 29975  1011 
10468.31Geoffrey (Drew) Geer   Boulder, CO1:56:57 157907  1170 Chipotle/Titus
11480.48David Overstreet   Breckenridge, CO1:57:17 264168  1219 Spike Shooter
12492.65Steve Boyd   San Diego, CA1:57:48 219929  680 
13504.82Curt Wilhelm   Blackhawk, CO2:01:38 38239  1027 Boulder MTB Racing
14516.99Rodrigo Gil Moreno de Mora   Loveland, CO2:02:47 240113  588 Diamond Peak Racing
15529.16Bonifacio Sandoval   Arvada, CO2:07:02 246269  1016 COMotion Sports / YETI Racing
16541.33Tony Gonzales   Los Alamos, NM2:11:18 229004  837 Nuptse Racing
17553.49Barry Wiebe   Littleton, CO2:12:25 171924  520 Colorado Singletrack Racing
18565.66Keevin Sharp   Amarillo, TX2:15:34 139617  1198 
19577.83Daniel Richard   Amarillo, TX2:21:49 121487  1241 
20590.00Alec Uitti   Boulder, CO2:27:28 195258  1232 Trailmaster Coaching
DNPLee Roufa   Telluride, CODNS 30709  515 Moots

Men - EX - Master - 50-99

 Place Points NameCity, StateTime USAC #BibTeam
1491.69Brian Lambert   Austin, TX1:47:29 20193  731 bicycle sport shop
2522.49Russell Asleson   Colorado Springs, CO1:51:26 2017  530 Procycling
3553.28John Bliss   Boulder, CO2:06:09 83145  628 Rocky Mounts - Izze Racing

Men - BG - Junior - 1-14

 Place Points NameCity, StateTime USAC #BibTeam
1493.74Nicholas Stanfield   Fruita, CO0:41:36.28 263159  785 
2Rylan PEREZ   0:46:43.32  1194 
3525.83Caleb Maher   Arroyo Seco, NM0:51:08.26 278448  888 575-776-2946v
4Duke JACKSON   0:54:18.75  868 Team F.I.Taos
5Bailey CORRY   1:10:02  726 FITaos
6573.96Bo Franklin   Taos, NM1:10:48 259760  662 Team F.I.Taos
7Forest RACH   1:56:38  903 Team F.I.Taos
DQSamuel Cowart   Tijeras, NMDSQ 261433  945 High Desert Bicycles

Men - BG - Junior - 15-18

 Place Points NameCity, StateTime USAC #BibTeam
1300.00Dylan Davis   Bailey, CO0:45:32.15 280229  1172 Platte Canyon High School
2372.50Drake Uriguen   Fruita, CO0:46:16.06 279628  1020 Singletrack Bike Shop
3Ford HOJNOSKI   0:48:19.99  1227 
4Mitchell DENNIS   0:56:09.64  1173 
5Robbie DE BURLO   1:02:44  958 Team F.I.Taos

Men - BG - Senior - 19-99

 Place Points NameCity, StateTime USAC #BibTeam
1393.56Kyle Gustafson   Denver, CO1:09:40 278528  578 Optimize Endurance Services (O
2410.51Bob Prieto   Boulder, CO1:10:49 246085  1007 Hills Scientific
3Chip NEWELL   1:14:29  904 Singletrack Factory
4444.41Tim Gallegos   Albuquerque, NM1:19:49 276809  619 
5Bobby PRESCOTT   1:26:22  650 
6Dustyn LADEWIG   1:29:39  763 
7495.26Bob Franklin   Taos, NM1:35:36 259763  663 Team F.I.Taos
8Adam NELSON   1:39:06  1180 
9Edwin DAMASO   1:41:14  947 
10David BOYD   1:47:43  623 
DNFbart spedden   Superior, CODNF 274655  952 Team Primal

Men - Pro

 Place Points NameCity, StateTime USAC #BibTeam
1485.98Jay Henry   Avon, CO1:58:04 15853  168 Tokyo Joes
2489.25Ross Schnell   Grand Jct, CO2:00:16 99965  143 Trek VW
3492.51Brian Fuentes   Boulder, CO2:00:17 12509  14 Waltworks/Fuentes Design
4495.78Brian Smith   Gunnison, CO2:04:19 33334  180 Trek VW
5499.04Joshua Bezecny   Golden, CO2:06:34 114873  231 
6502.31Michael McCalla   Santa Fe, NM2:07:33 23198  87 ScottUSA
7505.57Bryan Alders   Boulder, CO2:08:01 198436  230 Monaviecannnondale.com
8508.84Mitchell Hoke   Boulder, CO2:08:38 203760  169 Tokyo Joes
9512.11Jesse Swift   Golden, CO2:08:46 100646  184 Jesse Swift
10515.37Tim Allen   Golden, CO2:10:27 161831  148 VooDoo Cycles
11518.64Matthew Beaton   Colorado Springs, CO2:10:46 216119  150 Tokyo Joes
12521.90Cameron Brenneman   Santa Fe, NM2:11:09 4755  75 Sho-Air/Rock n Road
13525.17Miles Venzara   Durango, CO2:11:36 138725  255 Directory Plus
14Joshua BARLEY   2:11:47  252 
15531.70Brett Morgan   Yarmouth, ME2:12:06 150197  251 Sobe Cannondale
16534.97Adam Hoppe   Louisville, CO2:13:14 114100  65 Team Sol/ Cannondale
17538.23Michael Raney   Santa Fe, NM2:13:56 175669  142 Voodoo Cycles
18541.50Kelly Magelky   Denver, CO2:14:09 199904  175 Trek VW
19544.76J Clark   Colorado Springs, CO2:14:17 132523  152 Spike/ProCycling
20548.03Eric Sheagley   Portland, OR2:14:54 145237  91 Green Mountain Sports Velo
21551.29Greg Krause   Littleton, CO2:15:39 255940  52 Ellsworth Primal Wear
22554.56Jake Wells   Avon, CO2:17:53 191242  145 Mafia Racing
23557.83Michael Lange   Golden, CO2:18:45 102660  232 Jelly Belly Cycling Team
24561.09Christian Ball   Frisco, CO2:19:22 122835  234 Mafia Racing
25564.36Dylan Stucki   Durango, CO2:24:42 192016  10 Mafia Racing
26567.62McConnell Franklin   Taos2:29:01 215111  116 Team F.I.Taos
27570.89Micah Joseph   Denver, CO2:32:12 169692  253 bikeparts.com
DNPMike West   Boulder, CODNS 37786  19 Maverick
DNPColin Osborn   Carbondale, CODNS 210855  176 Team Bikeparts.com
DNFJeffrey Irwin   Gunnison, CODNF 17429  257 CB Builders / Brick Oven

Women - SP - Junior - 1-18

 Place Points NameCity, StateTime USAC #BibTeam
1540.00AC Franklin   Taos, NM0:56:35.85 250406  661 Team F.I.Taos
2552.50Hillary Mansfield   Boulder, CO0:57:00.42 264138  732 Tokyo Joes Junior Team
3Haley RACH   1:03:02  902 Team F.I.Taos
4Carolina MCGARITY   1:03:03  1041 Team F.I.Taos
5Molly PATTEN   1:16:44  1004 

Women - SP - Senior - 19-29

 Place Points NameCity, StateTime USAC #BibTeam
1540.00Elberta Seybold   Espanola, NM1:56:48 163469  779 RHOC Racing
2Kelly BROWN   2:01:41  937 Twin Peaks Racing
3Monica NIESS   2:05:32  1236 Pedal Queens
4Jessica KIRKPATRICK   2:05:40  762 
5565.00Kelly Emich   Boulder, CO2:20:59 277572  1217 COMotion Sports
6571.25kaitlyn watts   Fort Collins, CO2:24:17 267966  714 
7Karyssa BOWERS   2:32:51  1197 sixsixone/azonic
8Julie FREDLAKE   3:04:07  974 
9Victoria HENRY   3:46:09  846 Team FITaos

Women - SP - Master - 30-39

 Place Points NameCity, StateTime USAC #BibTeam
1Rachel FRIEDMAN   1:56:06  755 Pedal Queens
2Kathy RILEY   1:58:31  1201 
3554.29Laura Dreneu   Denver, CO1:58:51 279631  580 Optimize Endurance Services
4561.43Eileen Dawson   Durango, CO2:01:24 279948  657 
5Barb ROGERS   2:03:07  917 Cyclists For The Planet
6575.71Terrina Tafoya   Durango, CO2:13:17 271097  543 Fort Lewis College
7Devi SCHMIDT   2:27:15  643 Spokette Racing
8590.00Erin Seimetz   Boulder, CO2:37:34 279791  1229 Rocky Mount-Izze
DNPTara Peltier   Boulder, CODNS 251586  542 Rocky Mounts/Izze Racing

Women - SP - Master - 40-99

 Place Points NameCity, StateTime USAC #BibTeam
1530.25Donna Dallas   Saintaugustine, FL1:56:57 280494  946 Team F.I.Taos
2Shelly RAEMER   2:02:51  614 
3554.15Michele Bliss   Boulder, CO2:09:33 60539  629 Rocky Mounts - Izze Racing
4566.10Susan Prieto   Boulder, CO2:09:52 219062  1008 Blue Sky Velo
5Cindy VANOVER   2:21:50  925 Blue Sky Velo
6590.00Darcy Tiglas   Loveland, CO2:31:28 255031  506 Fort Collins Cycling Team
DNPNancy GERMOND   DNS  976 
DNPKarin Voll Barclay   Boulder, CODNS 115750  512 COMotion Sports

Women - Single Speed - 19-99

 Place Points NameCity, StateTime USAC #BibTeam
1Amy HERMES   2:14:53  1239 Team High Maintenance
2Kara Durland   Colorado Springs, CO2:20:08 199906  963 Pro Cycling/Black Sheep
3Chelsea McGowan   Lakewood, CO2:41:52 217555  568 Dales Pale Ale Spot Brand

Women - EX - Junior - 1-18

 Place Points NameCity, StateTime USAC #BibTeam
1450.31Deidre York   Boulder, CO2:11:44 178289  792 Velobum.com/Turner
2475.32Jill Behlen   Boulder, CO2:12:59 210228  803 Tokyo Joes
3500.34Meghan Kane   Dillon, CO2:23:49 223279  529 Tough Girl / Contessa
4525.36Ellen Patten   Boulder, CO2:31:59 230369  642 Boulder Devo/Tokyo Joes Junior
5550.37Wesley Geer   Salt Lake City, UT2:35:58 277045  1169 Tokyo Joes Jr
DNFEllie Atkins   Boulder, CODNF 247843  740 Tokyo Joes Junior

Women - EX - Senior - 19-29

 Place Points NameCity, StateTime USAC #BibTeam
1424.96Teal Stetson-Lee   Reno, NV2:03:15 252205  1214 Velo Bella/Dedicated Athlete
2437.17Kate Chapman   Breckenridge, CO2:05:08 226698  940 Mafia Racing
3449.38Megan Taylor   Denver, CO2:07:33 247273  1213 COMotion Sports
4461.59Molly Throdahl   Allendale, NJ2:10:10 260403  504 Phoenix Multisport
5473.80Lynn Bush   Arvada, CO2:11:55 217462  1115 Tough Girl / Contessa
6486.01Sarah Rawley   Dillon, CO2:14:57 234957  1245 Team Vanderkitten
7Elizabeth TURNAGE   2:16:06  676 RockShox
8510.43Sara Tarkington   Boulder, CO2:17:40 100459  540 Wheatridge Cyclery
9Mary HOYLE   2:22:17  870 
10534.84Lianna Miller   Colorado Springs, CO2:28:42 218389  536 Spike
11547.05Josephine Nelson   Lakewood, CO2:28:53 225188  1178 
12559.26Megan Cassidy   Ft. Collins, CO2:31:02 241805  1161 Velox Cycling
DNPLauren Ziedonis   Aspen, CODNS 248319  517 Basalt Bike and Ski/Columbine
DNPBrenda Moczygemba   Ketchum, IDDNS 216070  1238 Tough Girl / Contessa
DNFJane Rynbrandt   Del Mar, CADNF 208322  1014 Tough Girl / Contessa
DNFLydia Tanner   Boulder, CODNF 256646  923 Tokyo Joes

Women - EX - Master - 30-39

 Place Points NameCity, StateTime USAC #BibTeam
1475.13Sonya Bugbee   Lakewood, CO2:06:05 228971  591 YetiBeti
2491.43Ambre Levy   Fort Lauderdale, FL2:09:27 194877  877 Dolce Diavolo
3507.73Holly Wade   Dillon, CO2:13:04 228978  1246 COMotion Sports / YETI Racing
4524.03Jaime Brede   Breckenridge, CO2:17:31 279679  1187 Copper Mtn./High Country Racin
5540.33Catherine Chalecki   Boulder, CO2:22:00 226416  815 COMotion Sports / YETI Racing
6556.63Sarka Ruzickova   Winter Park, CO2:22:37 261623  508 YetiBeti
7572.93Vanessa Moore   Grand Junction, CO2:26:18 212390  998 
8589.24Pam Seidler   Carbondale, CO2:28:23 277022  503 Ute City Cycles
DNFCatherine Johnson   Boulder, CODNF 185214  1179 Organic Athlete P/b Vegnews Ma
DNFMelanie Long   Boulder, CODNF 214563  1224 Mafia Racing

Women - EX - Master - 40-99

 Place Points NameCity, StateTime USAC #BibTeam
1397.33Karen Hogan   Louisville, CO2:04:40 248610  867 Chipotle-Titus
2414.73Melissa Trainer   Boulder, CO2:08:41 111548  787 
3432.13Jane Finsterwald   Basalt, CO2:09:14 83503  1157 Chipotle / Titus
4449.53Melody Serra   Highlands Ranch, CO2:13:58 249421  583 Optimize Endurance Services
5466.93Linda Wells   Avon, CO2:16:05 13338  927 Team High Maintenance
6484.33Amy Robillard   Boulder, CO2:25:30 224790  1220 Tough Girl / Contessa
7501.73Karen Rishel   Las Cruces, NM2:29:42 206564  1012 Zia Velo
8519.13Maria Perez   Littleton, CO2:38:57 279615  912 Chipotle / Titus
DNPElizabeth Hanrehan   Carbondale, CODNS 262626  510 Basalt Bike and Ski
DNFKarie Mueller   Amarillo, TXDNF 214338  617 Chase Bank/ Velocity

Women - BG - Senior - 19-99

 Place Points NameCity, StateTime USAC #BibTeam
1540.00Jessica Rabideau   Ogden, UT1:21:31 279621  1096 
2Melissa GIACCHINO   1:43:49  1140 
3Mo ADAMSKI   1:54:13  1114 
DNFLorrie LAWRENCE   DNF  1154 
DNFJenelle Spedden   Superior, CODNF 278886  954 Team Primal
DNFMelissa Gonzales   Los Alamos, NMDNF 230630  836 NULL

Women - Pro

 Place Points NameCity, StateTime USAC #BibTeam
1418.33Katherine Compton   Colorado Springs, CO1:43:10 55820  105 Spike Shooter
2429.77Jennifer Smith   Gunnison, CO1:44:18 173838  182 Trek VW
3441.22Kelli Emmett   Plymouth Mi1:49:38 156146  162 Giant Bicycles
4452.66Gretchen Reeves   Avon, CO1:51:18 29423  260 Tokyo Joes
5464.11Judy Freeman   Littleton Co1:52:52 182719  258 Tough Girl / Contessa
6475.55Nina Baum   Albuquerque, NM1:53:57 180986  149 SoBe-Cannondale
7487.00Jennifer Gersbach   Durango, CO1:53:58 191239  244 Dales Pale Ale Spot Brand
8498.44Kelley Cullen   New Castle, CO1:53:59 231955  29 Rocky Mountain Racing
9509.89Kristin Danielson   Albuquerque, NM1:56:54 164978  256 Velo Bella
10521.33Caitlyn Tuel   Golden, CO1:57:10 168652  185 Trek VW
11532.78Lisa Hudson   Golden, CO2:00:01 223636  13 Feedback Sports
12544.22Jennifer Tilley   Carbondale, CO2:01:19 166006  241 Velo Bella / Kona
13555.67Shannon Edson   Bakersfield , CA2:03:00 192466  161 Velo Bella
14567.11Becca Blay   Boulder, CO2:03:45 174258  80 Bear Naked / Cannondale
15578.56Lindsey Bishop   Boulder, CO2:09:08 198013  248 
16590.00Monique Hein   Lyons, CO2:28:39 187615  246 Dales Pale Ale Spot Brand
DNPSusan Fiore   Arroyo Seco, NMDNS 163471  163 Team F.I.Taos
DNPDanae York   Boulder, CODNS 178290  233 Velobum.com/Turner Bikes
DNPAnn Fitzsimmons   Gilroy, CADNS 203793  856 Fox Racing Shox
DNFShari Hausbeck   Colorado Springs, CODNF 100434  259 Sram-rockshox-avid

Report missing or incorrect license numbers

Volkswagen
USACDFBonk BreakerShimanoSpyCUORESierra Nevada
UCI USA Cycling is the official governing body for all disciplines of competitive cycling in the United States. The 501c3, membership-based organization aims both to achieve sustained success in international cycling competition and to grow competitive cycling in America while delivering an exceptional customer experience.
View Children's Online Privacy Protection Policy
US Olympic Committee